When you browse on this site, cookies collect data to enhance your experience and personalize the content and advertising you see.
Visit our Privacy Policy to learn more. By continuing to use the site, you agree to this use of cookies and data.
  • Em Portugal
  • Lista de países
  • Para 7 dias
  • Temperatura da água
  • Mapas de satélite
  • Mapa do tempo
  • Widgets de tempo
  • user-avatar
    Iniciar Sessão

    Previsão horária em Ogorodchiki

    Hoje, 18 Junho, Terça-feira

    Tempo Temperatura Precipitação Vento Pressão Humidade
    00:00 +14°C° 0 mm 3 m/s 749 mmHg 96%
    01:00 +14°C° 0 mm 3 m/s 749 mmHg 96%
    02:00 +13°C° 0 mm 3 m/s 749 mmHg 96%
    03:00 +14°C° 0 mm 2 m/s 749 mmHg 95%
    04:00 +14°C° 0 mm 2 m/s 750 mmHg 95%
    05:00 +14°C° 0 mm 2 m/s 750 mmHg 94%
    06:00 +15°C° 0 mm 2 m/s 750 mmHg 89%
    07:00 +17°C° 0 mm 2 m/s 750 mmHg 84%
    08:00 +19°C° 0 mm 3 m/s 751 mmHg 80%
    09:00 +20°C° 0 mm 3 m/s 751 mmHg 72%
    10:00 +21°C° 0 mm 3 m/s 751 mmHg 64%
    11:00 +22°C° 0 mm 3 m/s 751 mmHg 57%
    12:00 +24°C° 0 mm 3 m/s 751 mmHg 56%
    13:00 +24°C° 0 mm 3 m/s 750 mmHg 54%
    14:00 +25°C° 0 mm 3 m/s 750 mmHg 53%
    15:00 +25°C° 0 mm 2 m/s 750 mmHg 55%
    16:00 +25°C° 0 mm 2 m/s 750 mmHg 57%
    17:00 +25°C° 0 mm 2 m/s 750 mmHg 60%
    18:00 +23°C° 0 mm 2 m/s 749 mmHg 66%
    19:00 +21°C° 0 mm 2 m/s 749 mmHg 72%
    20:00 +19°C° 0 mm 2 m/s 749 mmHg 78%
    21:00 +18°C° 0 mm 2 m/s 750 mmHg 81%
    22:00 +18°C° 0 mm 1 m/s 750 mmHg 84%
    23:00 +16°C° 0 mm 1 m/s 750 mmHg 86%

    Amanhã, 19 Junho, Quarta-feira

    Tempo Temperatura Precipitação Vento Pressão Humidade
    00:00 +15°C° 0 mm 1 m/s 750 mmHg 87%
    01:00 +15°C° 0 mm 1 m/s 750 mmHg 88%
    02:00 +15°C° 0 mm 1 m/s 750 mmHg 88%
    03:00 +15°C° 0 mm 1 m/s 750 mmHg 88%
    04:00 +15°C° 0 mm 1 m/s 750 mmHg 88%
    05:00 +15°C° 0 mm 1 m/s 750 mmHg 88%
    06:00 +18°C° 0 mm 1 m/s 750 mmHg 83%
    07:00 +19°C° 0 mm 1 m/s 750 mmHg 78%
    08:00 +21°C° 0 mm 1 m/s 750 mmHg 73%
    09:00 +22°C° 0 mm 1 m/s 750 mmHg 68%
    10:00 +24°C° 0 mm 1 m/s 750 mmHg 62%
    11:00 +25°C° 0 mm 1 m/s 750 mmHg 57%
    12:00 +25°C° 0 mm 2 m/s 749 mmHg 56%
    13:00 +26°C° 0 mm 2 m/s 749 mmHg 55%
    14:00 +26°C° 0 mm 2 m/s 749 mmHg 54%
    15:00 +26°C° 0 mm 3 m/s 748 mmHg 57%
    16:00 +26°C° 0 mm 3 m/s 748 mmHg 60%
    17:00 +25°C° 0 mm 3 m/s 748 mmHg 63%
    18:00 +24°C° 0 mm 3 m/s 748 mmHg 69%
    19:00 +21°C° 0 mm 2 m/s 747 mmHg 75%
    20:00 +20°C° 0 mm 2 m/s 747 mmHg 80%
    21:00 +19°C° 0 mm 2 m/s 747 mmHg 82%
    22:00 +18°C° 0 mm 2 m/s 747 mmHg 84%
    23:00 +16°C° 0 mm 2 m/s 747 mmHg 86%

    Depois de amanhã, 20 Junho, Quinta-feira

    Tempo Temperatura Precipitação Vento Pressão Humidade
    00:00 +16°C° 0 mm 2 m/s 747 mmHg 86%
    01:00 +16°C° 0 mm 2 m/s 747 mmHg 86%
    02:00 +14°C° 0 mm 3 m/s 747 mmHg 86%
    03:00 +16°C° 0 mm 3 m/s 746 mmHg 85%
    04:00 +16°C° 0 mm 3 m/s 746 mmHg 84%
    05:00 +16°C° 0 mm 3 m/s 746 mmHg 82%
    06:00 +18°C° 0 mm 4 m/s 746 mmHg 81%
    07:00 +19°C° 0 mm 4 m/s 746 mmHg 79%
    08:00 +21°C° 0 mm 4 m/s 746 mmHg 78%
    09:00 +22°C° 0.2 mm 4 m/s 746 mmHg 79%
    10:00 +22°C° 0.2 mm 4 m/s 746 mmHg 80%
    11:00 +23°C° 0.2 mm 4 m/s 746 mmHg 82%
    12:00 +23°C° 0.4 mm 4 m/s 746 mmHg 84%
    13:00 +22°C° 0.4 mm 3 m/s 745 mmHg 87%
    14:00 +22°C° 0.4 mm 3 m/s 745 mmHg 89%
    15:00 +22°C° 0.1 mm 3 m/s 745 mmHg 89%
    16:00 +21°C° 0.1 mm 3 m/s 745 mmHg 89%
    17:00 +21°C° 0.1 mm 4 m/s 745 mmHg 89%
    18:00 +21°C° 0 mm 3 m/s 745 mmHg 89%
    19:00 +21°C° 0 mm 3 m/s 745 mmHg 90%
    20:00 +21°C° 0 mm 2 m/s 745 mmHg 91%
    21:00 +20°C° 0.3 mm 2 m/s 745 mmHg 92%
    22:00 +20°C° 0.3 mm 2 m/s 745 mmHg 93%
    23:00 +20°C° 0.3 mm 2 m/s 745 mmHg 94%

    21 Junho, Sexta-feira

    Tempo Temperatura Precipitação Vento Pressão Humidade
    00:00 +19°C° 0.2 mm 2 m/s 744 mmHg 95%
    01:00 +19°C° 0.2 mm 2 m/s 744 mmHg 96%
    02:00 +19°C° 0.2 mm 2 m/s 744 mmHg 96%
    03:00 +19°C° 0 mm 2 m/s 744 mmHg 97%
    04:00 +19°C° 0 mm 2 m/s 745 mmHg 97%
    05:00 +19°C° 0 mm 2 m/s 745 mmHg 98%
    06:00 +20°C° 0.1 mm 2 m/s 745 mmHg 96%
    07:00 +21°C° 0.1 mm 3 m/s 745 mmHg 95%
    08:00 +21°C° 0.1 mm 3 m/s 745 mmHg 93%
    09:00 +24°C° 1.2 mm 3 m/s 745 mmHg 89%
    10:00 +25°C° 1.2 mm 3 m/s 745 mmHg 84%
    11:00 +27°C° 1.2 mm 3 m/s 745 mmHg 80%
    12:00 +27°C° 1.2 mm 3 m/s 745 mmHg 75%
    13:00 +28°C° 1.2 mm 2 m/s 745 mmHg 70%
    14:00 +29°C° 1.2 mm 2 m/s 744 mmHg 66%
    15:00 +29°C° 0.3 mm 2 m/s 744 mmHg 69%
    16:00 +29°C° 0.3 mm 3 m/s 744 mmHg 72%
    17:00 +28°C° 0.3 mm 3 m/s 744 mmHg 76%
    18:00 +27°C° 0.9 mm 2 m/s 744 mmHg 79%
    19:00 +26°C° 0.9 mm 2 m/s 744 mmHg 83%
    20:00 +24°C° 0.9 mm 2 m/s 744 mmHg 87%
    21:00 +24°C° 0.7 mm 2 m/s 744 mmHg 88%
    22:00 +23°C° 0.7 mm 2 m/s 744 mmHg 90%
    23:00 +23°C° 0.7 mm 2 m/s 744 mmHg 91%

    22 Junho, Sábado

    Tempo Temperatura Precipitação Vento Pressão Humidade
    00:00 +21°C° 0 mm 2 m/s 744 mmHg 92%
    01:00 +21°C° 0 mm 2 m/s 744 mmHg 93%
    02:00 +21°C° 0 mm 2 m/s 743 mmHg 95%
    03:00 +21°C° 0.2 mm 2 m/s 744 mmHg 95%
    04:00 +21°C° 0.2 mm 3 m/s 744 mmHg 96%
    05:00 +21°C° 0.2 mm 3 m/s 744 mmHg 96%
    06:00 +22°C° 0.1 mm 3 m/s 744 mmHg 95%
    07:00 +22°C° 0.1 mm 3 m/s 744 mmHg 93%
    08:00 +24°C° 0.1 mm 3 m/s 745 mmHg 91%
    09:00 +24°C° 0.2 mm 3 m/s 745 mmHg 90%
    10:00 +23°C° 0.2 mm 4 m/s 745 mmHg 88%
    11:00 +23°C° 0.2 mm 4 m/s 745 mmHg 86%
    12:00 +23°C° 0 mm 4 m/s 746 mmHg 84%
    13:00 +23°C° 0 mm 4 m/s 746 mmHg 82%
    14:00 +23°C° 0 mm 5 m/s 746 mmHg 79%
    15:00 +22°C° 0 mm 4 m/s 747 mmHg 81%
    16:00 +22°C° 0 mm 4 m/s 747 mmHg 82%
    17:00 +21°C° 0 mm 4 m/s 747 mmHg 83%
    18:00 +21°C° 0 mm 4 m/s 747 mmHg 84%
    19:00 +20°C° 0 mm 3 m/s 747 mmHg 86%
    20:00 +19°C° 0 mm 3 m/s 748 mmHg 87%
    21:00 +18°C° 0 mm 2 m/s 748 mmHg 90%
    22:00 +17°C° 0 mm 2 m/s 748 mmHg 92%
    23:00 +17°C° 0 mm 2 m/s 749 mmHg 95%

    23 Junho, Domingo

    Tempo Temperatura Precipitação Vento Pressão Humidade
    00:00 +16°C° 0 mm 2 m/s 749 mmHg 95%
    01:00 +16°C° 0 mm 3 m/s 749 mmHg 95%
    02:00 +16°C° 0 mm 3 m/s 749 mmHg 96%
    03:00 +16°C° 0 mm 3 m/s 749 mmHg 95%
    04:00 +16°C° 0 mm 3 m/s 749 mmHg 95%
    05:00 +16°C° 0 mm 3 m/s 749 mmHg 94%
    06:00 +16°C° 0 mm 3 m/s 749 mmHg 91%
    07:00 +17°C° 0 mm 4 m/s 749 mmHg 87%
    08:00 +18°C° 0 mm 4 m/s 750 mmHg 84%
    09:00 +19°C° 0 mm 4 m/s 750 mmHg 82%
    10:00 +20°C° 0 mm 4 m/s 749 mmHg 80%
    11:00 +21°C° 0 mm 4 m/s 749 mmHg 77%
    12:00 +21°C° 0.2 mm 4 m/s 749 mmHg 80%
    13:00 +20°C° 0.2 mm 3 m/s 749 mmHg 82%
    14:00 +20°C° 0.2 mm 3 m/s 749 mmHg 84%
    15:00 +20°C° 1.1 mm 3 m/s 749 mmHg 87%
    16:00 +19°C° 1.1 mm 3 m/s 748 mmHg 91%
    17:00 +18°C° 1.1 mm 3 m/s 748 mmHg 94%
    18:00 +18°C° 0.5 mm 3 m/s 748 mmHg 94%
    19:00 +18°C° 0.5 mm 3 m/s 748 mmHg 95%
    20:00 +18°C° 0.5 mm 3 m/s 748 mmHg 95%
    21:00 +17°C° 0 mm 3 m/s 748 mmHg 95%
    22:00 +17°C° 0 mm 3 m/s 748 mmHg 96%
    23:00 +17°C° 0 mm 2 m/s 748 mmHg 96%
    Mostrar mais